AG7GN Bellingham WA US current weather conditions

sailwx.info

Wind from 070

Air temperature 5.6° C
Dewpoint 1.8° C

Last reported at 2019-Nov-21 18:06 UTC.
Time now 2019-Nov-21 18:42 UTC

Location: N 48°45' W 122°28'.
View on Google Maps.

See reports from other nearby stations

  
Tides and Currents Weather Stations Pressure Air Temp Water Temp Dewpoint Dewpoint Depression Visibility Wind Speed Wind Dir Waves Ship Positions
date/time (UTC)wind fromknots sea level pressurealtimeterstation pressurevisibilityair tempwater tempwave heightnotes
2019-Nov-21 18:06 070 5.6
2019-Nov-21 18:01 034 5.6
2019-Nov-21 17:51 115 5.0
2019-Nov-21 17:46 115 4.4
2019-Nov-21 17:41 115 3.9
2019-Nov-21 17:36 115 3.9
2019-Nov-21 17:31 115 3.9
2019-Nov-21 17:26 127 3.3
2019-Nov-21 17:21 138 0 gusting 1 3.3
2019-Nov-21 17:16 129 0 gusting 1 2.8
2019-Nov-21 17:11 077 2.8
2019-Nov-21 17:06 065 0 gusting 1 2.2
2019-Nov-21 17:01 068 0 gusting 1 2.2
2019-Nov-21 16:56 085 2.2
2019-Nov-21 16:51 108 1.7
2019-Nov-21 16:46 108 1.7
2019-Nov-21 16:41 057 1.1
2019-Nov-21 16:36 046 0 gusting 1 1.1
2019-Nov-21 16:31 056 0 gusting 1 1.1
2019-Nov-21 16:06 095 -0.0
2019-Nov-21 16:01 059 -0.6
2019-Nov-21 15:56 027 -0.6
2019-Nov-21 15:51 026 -0.6
2019-Nov-21 15:46 062 -0.6
2019-Nov-21 15:41 068 -0.6
2019-Nov-21 15:36 068 -0.6
2019-Nov-21 15:31 065 -0.6
2019-Nov-21 15:26 065 -0.6
2019-Nov-21 15:21 065 -0.6
2019-Nov-21 15:16 065 -0.6
2019-Nov-21 15:11 065 -0.6
2019-Nov-21 15:06 065 -0.6
2019-Nov-21 15:01 065 -0.6
2019-Nov-21 14:56 058 0 gusting 1 -0.6
2019-Nov-21 14:51 058 0 gusting 2 -0.6
2019-Nov-21 14:46 042 0 gusting 2 -0.6
2019-Nov-21 14:41 069 0 gusting 1 -0.6
2019-Nov-21 14:36 093 0 gusting 1 -0.6
2019-Nov-21 14:31 095 0 gusting 1 -0.6
2019-Nov-21 14:26 072 0 gusting 1 -0.6
2019-Nov-21 14:21 051 -0.6
2019-Nov-21 14:16 051 -0.6
2019-Nov-21 14:11 051 -0.6
2019-Nov-21 14:06 088 0 gusting 0 -0.6
2019-Nov-21 14:01 088 -0.6
2019-Nov-21 13:56 080 -0.6
2019-Nov-21 13:51 084 0 gusting 0 -0.6
2019-Nov-21 13:46 098 -0.6
2019-Nov-21 13:41 098 -0.6
2019-Nov-21 13:36 098 -0.6
2019-Nov-21 13:31 098 -0.6
2019-Nov-21 13:26 098 -0.6
2019-Nov-21 13:21 098 -0.6
2019-Nov-21 13:16 098 -0.0
2019-Nov-21 13:11 098 -0.6
2019-Nov-21 13:06 045 0 gusting 0 -0.0
2019-Nov-21 13:01 045 0 gusting 1 -0.6
2019-Nov-21 12:56 039 0 gusting 1 -0.6
2019-Nov-21 12:51 083 -0.6
2019-Nov-21 12:46 088 0 gusting 0 -0.6
2019-Nov-21 12:41 088 0 gusting 1 -0.0
2019-Nov-21 12:36 079 0 gusting 1 -0.0
2019-Nov-21 12:31 068 1 gusting 1 -0.0
2019-Nov-21 12:26 059 0 gusting 1 -0.0
2019-Nov-21 12:21 066 0 gusting 1 -0.6
2019-Nov-21 12:16 065 0 gusting 1 -0.6
2019-Nov-21 12:11 065 0 gusting 1 -0.6
2019-Nov-21 12:06 071 -0.6
2019-Nov-21 12:01 072 0 gusting 1 -0.6
2019-Nov-21 11:56 073 0 gusting 1 -0.6
2019-Nov-21 11:51 088 0 gusting 0 -0.6
2019-Nov-21 11:46 078 0 gusting 1 -0.6
2019-Nov-21 11:41 056 0 gusting 1 -0.6
2019-Nov-21 11:36 057 0 gusting 1 -0.0
2019-Nov-21 11:31 062 0 gusting 1 -0.0
2019-Nov-21 11:26 073 0 gusting 0 -0.0
2019-Nov-21 11:21 069 0 gusting 0 -0.0
2019-Nov-21 11:16 069 0 gusting 0 -0.0
2019-Nov-21 11:11 068 -0.6
2019-Nov-21 11:01 068 -0.0
2019-Nov-21 10:56 068 0 gusting 0 -0.0
2019-Nov-21 10:51 068 -0.0
2019-Nov-21 10:46 070 -0.0
2019-Nov-21 10:41 070 -0.0
2019-Nov-21 10:36 072 -0.0
2019-Nov-21 10:31 110 -0.0
2019-Nov-21 10:26 111 -0.0
2019-Nov-21 10:21 110 -0.0
2019-Nov-21 10:16 111 0 gusting 0 -0.0
2019-Nov-21 10:11 083 -0.0
2019-Nov-21 10:06 083 -0.0
2019-Nov-21 10:01 083 -0.0
2019-Nov-21 09:56 083 -0.0
2019-Nov-21 09:51 083 0 gusting 1 -0.0
2019-Nov-21 09:46 081 0 gusting 0 -0.0
2019-Nov-21 09:41 068 0 gusting 1 -0.0
2019-Nov-21 09:36 068 0 gusting 2 -0.0
2019-Nov-21 09:31 068 1 gusting 2 0.6
2019-Nov-21 09:26 065 1 gusting 2 0.6
2019-Nov-21 09:21 089 0 gusting 2 0.6
2019-Nov-21 09:16 058 0 gusting 1 0.6
2019-Nov-21 09:11 068 0.6
2019-Nov-21 09:06 096 0.6
2019-Nov-21 09:01 096 0.6
2019-Nov-21 08:56 092 0.6
2019-Nov-21 08:51 092 0.6
2019-Nov-21 08:46 111 0.6
2019-Nov-21 08:41 111 0.6
2019-Nov-21 08:36 111 0.6
2019-Nov-21 08:31 111 0.6
2019-Nov-21 08:26 111 0.6
2019-Nov-21 08:21 112 0.6
2019-Nov-21 08:16 112 0.6
2019-Nov-21 08:11 112 0.6
2019-Nov-21 08:06 112 0.6
2019-Nov-21 08:01 112 0.6
2019-Nov-21 07:55 106 0 gusting 1 0.6
2019-Nov-21 07:50 077 0 gusting 1 1.1
2019-Nov-21 07:46 089 0 gusting 2 1.1
2019-Nov-21 07:40 061 1 gusting 3 1.1
2019-Nov-21 07:35 062 1 gusting 3 1.1
2019-Nov-21 07:30 079 0 gusting 1 1.1
2019-Nov-21 07:25 049 0 gusting 1 1.1
2019-Nov-21 07:20 083 0 gusting 1 1.1
2019-Nov-21 07:15 105 1.1
2019-Nov-21 07:10 089 1.1
2019-Nov-21 07:05 089 1.1
2019-Nov-21 07:00 082 1.7
2019-Nov-21 06:55 061 1.7
2019-Nov-21 06:50 041 1.7
2019-Nov-21 06:45 101 0 gusting 2 1.7
2019-Nov-21 06:40 076 0 gusting 2 1.7
2019-Nov-21 06:35 018 0 gusting 1 1.7
2019-Nov-21 06:30 072 1.7
2019-Nov-21 06:25 074 1.7
2019-Nov-21 06:20 075 1.7
2019-Nov-21 06:15 074 0 gusting 1 1.7
2019-Nov-21 06:10 070 0 gusting 1 2.2
2019-Nov-21 06:05 090 0 gusting 0 2.2
2019-Nov-21 06:00 110 0 gusting 0 2.2
2019-Nov-21 05:55 125 0 gusting 1 2.2
2019-Nov-21 05:50 065 0 gusting 1 2.2
2019-Nov-21 05:45 070 0 gusting 1 2.2
2019-Nov-21 05:40 018 0 gusting 1 2.2
2019-Nov-21 05:35 040 0 gusting 1 2.2
2019-Nov-21 05:30 094 0 gusting 0 2.8
2019-Nov-21 05:25 120 0 gusting 1 2.8
2019-Nov-21 05:20 120 0 gusting 1 2.2
2019-Nov-21 05:15 091 0 gusting 3 2.2
2019-Nov-21 05:10 044 0 gusting 3 2.2
2019-Nov-21 05:05 049 2.2
2019-Nov-21 05:00 091 2.2
2019-Nov-21 04:55 091 0 gusting 1 2.8
2019-Nov-21 04:50 069 0 gusting 2 2.8
2019-Nov-21 04:45 072 1 gusting 2 2.8
2019-Nov-21 04:40 077 0 gusting 2 2.8
2019-Nov-21 04:35 070 0 gusting 1 2.8
2019-Nov-21 04:30 068 0 gusting 1 2.8
2019-Nov-21 04:25 070 0 gusting 1 2.8
2019-Nov-21 04:20 051 0 gusting 1 2.8
2019-Nov-21 04:15 070 0 gusting 2 2.8
2019-Nov-21 04:10 070 0 gusting 2 2.8
2019-Nov-21 04:05 062 0 gusting 2 3.3
2019-Nov-21 04:00 058 0 gusting 1 3.3
2019-Nov-21 03:55 068 0 gusting 1 3.3
2019-Nov-21 03:50 078 0 gusting 1 3.3
2019-Nov-21 03:45 114 1 gusting 3 3.3
2019-Nov-21 03:40 089 1 gusting 3 3.3
2019-Nov-21 03:35 059 0 gusting 2 3.3
2019-Nov-21 03:30 079 0 gusting 1 3.3
2019-Nov-21 03:25 046 0 gusting 1 3.3
2019-Nov-21 03:20 060 0 gusting 1 3.9
2019-Nov-21 03:15 056 0 gusting 1 3.9
2019-Nov-21 03:10 071 0 gusting 1 3.9
2019-Nov-21 03:05 080 0 gusting 1 3.9
2019-Nov-21 03:00 065 0 gusting 2 3.9
2019-Nov-21 02:55 076 1 gusting 2 3.9
2019-Nov-21 02:50 079 1 gusting 2 4.4
2019-Nov-21 02:45 058 1 gusting 2 4.4
2019-Nov-21 02:40 087 0 gusting 2 4.4
2019-Nov-21 02:35 076 0 gusting 1 4.4
2019-Nov-21 02:30 057 1 gusting 1 4.4
2019-Nov-21 02:25 065 0 gusting 1 4.4
2019-Nov-21 02:20 065 1 gusting 2 5.0
2019-Nov-21 02:15 068 1 gusting 2 5.0
2019-Nov-21 02:10 068 1 gusting 2 5.0
2019-Nov-21 02:05 068 1 gusting 2 5.6
2019-Nov-21 02:00 086 0 gusting 2 5.6
2019-Nov-21 01:55 068 6.1
2019-Nov-21 01:50 161 6.7
2019-Nov-21 01:45 160 0 gusting 0 6.7
2019-Nov-21 01:40 119 0 gusting 1 6.7
2019-Nov-21 01:35 119 0 gusting 1 6.7
2019-Nov-21 01:30 136 6.7
2019-Nov-21 01:25 103 7.2
2019-Nov-21 01:20 101 7.2
2019-Nov-21 01:15 025 7.8
2019-Nov-21 01:10 025 7.8
2019-Nov-21 01:05 025 0 gusting 2 8.3
2019-Nov-21 01:00 025 8.3
2019-Nov-21 00:55 051 8.9
2019-Nov-21 00:50 051 8.9
2019-Nov-21 00:45 051 9.4
2019-Nov-21 00:40 051 0 gusting 2 9.4
2019-Nov-21 00:35 051 0 gusting 2 10.0
2019-Nov-21 00:30 011 10.0
2019-Nov-21 00:25 040 0 gusting 2 10.0
2019-Nov-21 00:20 027 1 gusting 2 10.6
2019-Nov-21 00:15 006 0 gusting 2 10.6
2019-Nov-21 00:10 354 0 gusting 1 11.1
2019-Nov-21 00:05 343 11.7
2019-Nov-21 00:00 343 0 gusting 3 11.1
2019-Nov-20 23:55 031 1 gusting 5 11.1
2019-Nov-20 23:50 020 2 gusting 6 11.1
2019-Nov-20 23:45 032 2 gusting 6 11.1
2019-Nov-20 23:40 037 1 gusting 6 11.7
2019-Nov-20 23:35 060 2 gusting 5 11.7
2019-Nov-20 23:30 094 3 gusting 9 11.7
2019-Nov-20 23:25 052 3 gusting 9 11.7
2019-Nov-20 23:20 028 2 gusting 9 11.7
2019-Nov-20 23:15 345 2 gusting 9 11.7
2019-Nov-20 23:10 333 2 gusting 6 11.7
2019-Nov-20 23:05 316 2 gusting 6 11.7
2019-Nov-20 23:00 346 1 gusting 3 12.2
2019-Nov-20 22:55 302 1 gusting 6 12.2
2019-Nov-20 22:50 007 1 gusting 6 12.2
2019-Nov-20 22:45 024 1 gusting 5 12.2
2019-Nov-20 22:40 003 2 gusting 7 12.2
2019-Nov-20 22:35 014 2 gusting 7 12.2
2019-Nov-20 22:30 335 2 gusting 6 12.2
2019-Nov-20 22:25 027 2 gusting 6 11.7
2019-Nov-20 22:20 063 2 gusting 6 11.7
2019-Nov-20 22:15 325 1 gusting 4 12.2
2019-Nov-20 22:10 008 1 gusting 4 12.2
2019-Nov-20 22:05 304 1 gusting 6 12.2
2019-Nov-20 22:00 001 1 gusting 6 12.2
2019-Nov-20 21:55 316 2 gusting 4 12.2
2019-Nov-20 21:50 328 2 gusting 4 12.2
2019-Nov-20 21:45 315 2 gusting 5 12.2
2019-Nov-20 21:40 006 2 gusting 6 12.2
2019-Nov-20 21:35 333 3 gusting 9 12.2
2019-Nov-20 21:30 008 4 gusting 10 12.2
2019-Nov-20 21:25 018 3 gusting 10 12.2
2019-Nov-20 21:20 320 3 gusting 9 12.2
2019-Nov-20 21:15 319 2 gusting 8 12.2
2019-Nov-20 21:10 328 2 gusting 6 12.2
2019-Nov-20 21:05 332 2 gusting 9 12.2
2019-Nov-20 21:00 320 2 gusting 9 11.7
2019-Nov-20 20:55 024 2 gusting 6 11.7
2019-Nov-20 20:50 326 3 gusting 7 11.7
2019-Nov-20 20:45 331 3 gusting 10 11.7
2019-Nov-20 20:40 011 4 gusting 10 11.7
2019-Nov-20 20:35 326 3 gusting 9 11.7
2019-Nov-20 20:30 338 3 gusting 6 11.7
2019-Nov-20 20:25 023 3 gusting 9 11.7
2019-Nov-20 20:20 011 3 gusting 9 11.7
2019-Nov-20 20:15 068 2 gusting 8 11.7
2019-Nov-20 20:10 012 2 gusting 7 11.7
2019-Nov-20 20:05 040 3 gusting 8 11.1
2019-Nov-20 20:00 017 3 gusting 9 11.1
2019-Nov-20 19:55 010 3 gusting 9 11.1
2019-Nov-20 19:50 345 4 gusting 8 11.1
2019-Nov-20 19:45 082 3 gusting 8 11.1
2019-Nov-20 19:40 328 4 gusting 9 10.6
2019-Nov-20 19:35 027 4 gusting 11 10.6
2019-Nov-20 19:30 337 4 gusting 11 10.6
2019-Nov-20 19:25 031 3 gusting 8 10.6
2019-Nov-20 19:20 343 3 gusting 7 10.6
2019-Nov-20 19:15 012 3 gusting 7 10.6
2019-Nov-20 19:10 001 3 gusting 7 10.6
2019-Nov-20 19:05 319 2 gusting 7 10.0
2019-Nov-20 19:00 046 1 gusting 6 10.0
2019-Nov-20 18:55 309 1 gusting 4 10.0
2019-Nov-20 18:50 045 2 gusting 6 10.0
2019-Nov-20 18:45 061 3 gusting 6 9.4
2019-Nov-20 18:40 063 3 gusting 7 9.4
2019-Nov-20 18:35 346 3 gusting 7 9.4
2019-Nov-20 18:30 047 3 gusting 8 9.4
2019-Nov-20 18:25 046 3 gusting 8 9.4
2019-Nov-20 18:20 047 3 gusting 8 8.9
2019-Nov-20 18:15 013 3 gusting 7 8.9
2019-Nov-20 18:10 049 3 gusting 9 8.9
2019-Nov-20 18:05 039 4 gusting 11 8.9
2019-Nov-20 18:00 066 4 gusting 11 8.9
2019-Nov-20 17:55 075 4 gusting 11 8.9
2019-Nov-20 17:50 075 3 gusting 10 8.9
2019-Nov-20 17:45 354 3 gusting 7 8.9
2019-Nov-20 17:40 039 3 gusting 7 8.3
2019-Nov-20 17:35 078 2 gusting 7 8.3
2019-Nov-20 17:30 302 4 gusting 7 8.3
2019-Nov-20 17:25 066 5 gusting 9 7.8
2019-Nov-20 17:20 053 3 gusting 9 7.8
2019-Nov-20 17:15 034 3 gusting 9 7.8
2019-Nov-20 17:10 035 3 gusting 9 7.8
2019-Nov-20 17:05 007 3 gusting 7 7.8
2019-Nov-20 17:00 269 3 gusting 8 7.8
2019-Nov-20 16:55 340 4 gusting 8 7.2
2019-Nov-20 16:50 051 3 gusting 7 7.2
2019-Nov-20 16:45 049 2 gusting 6 7.2
2019-Nov-20 16:40 049 2 gusting 5 7.2
2019-Nov-20 16:35 037 2 gusting 6 6.7
2019-Nov-20 16:30 071 3 gusting 6 6.7
2019-Nov-20 16:25 082 2 gusting 7 6.7
2019-Nov-20 16:20 064 3 gusting 8 6.7
2019-Nov-20 16:15 078 4 gusting 8 6.7
2019-Nov-20 16:10 094 4 gusting 9 6.7
2019-Nov-20 16:05 017 5 gusting 11 6.7
2019-Nov-20 16:00 339 5 gusting 11 6.7
2019-Nov-20 15:50 331 6 gusting 13 6.7
2019-Nov-20 15:45 007 6 gusting 13 6.7
2019-Nov-20 15:40 338 5 gusting 12 6.7
2019-Nov-20 15:35 335 5 gusting 13 6.7
2019-Nov-20 15:30 028 5 gusting 13 6.7
2019-Nov-20 15:25 004 5 gusting 14 6.7
2019-Nov-20 15:20 013 6 gusting 14 6.7
2019-Nov-20 15:15 342 6 gusting 11 6.7
2019-Nov-20 15:10 022 6 gusting 13 7.2
2019-Nov-20 15:05 359 5 gusting 13 7.2
2019-Nov-20 15:00 029 5 gusting 13 6.7
2019-Nov-20 14:55 001 5 gusting 13 6.7
2019-Nov-20 14:45 017 3 gusting 9 6.1
2019-Nov-20 14:40 026 3 gusting 11 6.1
2019-Nov-20 14:35 351 4 gusting 11 6.7
2019-Nov-20 14:30 333 4 gusting 10 6.7
2019-Nov-20 14:25 027 4 gusting 9 6.7
2019-Nov-20 14:20 032 3 gusting 8 6.7
2019-Nov-20 14:15 012 4 gusting 7 6.7
2019-Nov-20 14:10 053 4 gusting 12 6.7
2019-Nov-20 14:05 051 4 gusting 12 6.7
2019-Nov-20 14:00 070 4 gusting 7 6.7
2019-Nov-20 13:55 063 5 gusting 8 6.7
2019-Nov-20 13:50 084 5 gusting 9 6.7
2019-Nov-20 13:45 046 4 gusting 10 6.7
2019-Nov-20 13:40 036 5 gusting 12 6.7
2019-Nov-20 13:35 006 4 gusting 12 6.7
2019-Nov-20 13:30 032 4 gusting 10 6.7
2019-Nov-20 13:25 067 4 gusting 10 6.7
2019-Nov-20 13:20 056 3 gusting 10 7.2
2019-Nov-20 13:15 032 3 gusting 9 7.2
2019-Nov-20 13:10 051 3 gusting 7 7.2
2019-Nov-20 13:05 055 3 gusting 8 7.2
2019-Nov-20 13:00 342 4 gusting 8 7.2
2019-Nov-20 12:55 027 4 gusting 11 7.2
2019-Nov-20 12:50 021 5 gusting 11 7.2
2019-Nov-20 12:45 7.2
2019-Nov-20 12:40 018 5 gusting 11 7.2
2019-Nov-20 12:35 338 6 gusting 13 7.2
2019-Nov-20 12:30 347 6 gusting 13 7.2
2019-Nov-20 12:25 004 5 gusting 10 7.2
2019-Nov-20 12:20 030 5 gusting 12 7.2
2019-Nov-20 12:15 059 5 gusting 12 7.8
2019-Nov-20 12:10 025 5 gusting 11 7.8
2019-Nov-20 12:05 008 6 gusting 13 7.8
2019-Nov-20 12:00 357 6 gusting 13 7.8
2019-Nov-20 11:55 014 6 gusting 12 7.8
2019-Nov-20 11:50 077 5 gusting 12 7.8
2019-Nov-20 11:45 329 6 gusting 11 7.8
2019-Nov-20 11:40 006 5 gusting 13 7.8
2019-Nov-20 11:35 004 5 gusting 13 7.8
2019-Nov-20 11:30 317 4 gusting 10 7.8
2019-Nov-20 11:25 7.8
2019-Nov-20 11:20 049 5 gusting 10 7.8
2019-Nov-20 11:15 033 5 gusting 11 8.3
2019-Nov-20 11:10 013 4 gusting 11 8.3
2019-Nov-20 11:05 065 4 gusting 9 8.3
2019-Nov-20 11:00 048 4 gusting 10 8.3
2019-Nov-20 10:55 317 5 gusting 11 8.3
2019-Nov-20 10:50 061 4 gusting 11 8.3
2019-Nov-20 10:45 020 4 gusting 9 8.3
2019-Nov-20 10:40 025 4 gusting 10 8.3
2019-Nov-20 10:35 024 5 gusting 13 8.3
2019-Nov-20 10:30 016 5 gusting 13 8.3
2019-Nov-20 10:25 070 5 gusting 12 8.3
2019-Nov-20 10:20 017 5 gusting 12 8.3
2019-Nov-20 10:15 079 4 gusting 11 8.3
2019-Nov-20 10:10 065 5 gusting 11 8.3
2019-Nov-20 10:05 033 5 gusting 11 8.3
2019-Nov-20 10:00 008 3 gusting 9 8.3
2019-Nov-20 09:55 041 3 gusting 9 8.3
2019-Nov-20 09:50 058 3 gusting 8 8.3
2019-Nov-20 09:45 018 4 gusting 13 8.9
2019-Nov-20 09:40 022 5 gusting 13 8.9
2019-Nov-20 09:35 282 6 gusting 13 9.4
2019-Nov-20 09:30 004 6 gusting 15 9.4
2019-Nov-20 09:25 065 6 gusting 15 9.4
2019-Nov-20 09:20 094 6 gusting 15 9.4
2019-Nov-20 09:15 047 6 gusting 15 9.4
2019-Nov-20 09:10 304 6 gusting 13 9.4
2019-Nov-20 09:05 055 5 gusting 14 9.4
2019-Nov-20 09:00 037 6 gusting 14 9.4
2019-Nov-20 08:55 359 5 gusting 13 9.4
2019-Nov-20 08:50 067 4 gusting 13 9.4
2019-Nov-20 08:45 330 3 gusting 9 9.4
2019-Nov-20 08:39 327 4 gusting 10 9.4
2019-Nov-20 08:34 023 4 gusting 10 9.4
2019-Nov-20 08:29 053 3 gusting 9 8.9
2019-Nov-20 08:25 065 3 gusting 9 8.9
2019-Nov-20 08:19 359 4 gusting 8 8.9
2019-Nov-20 08:14 034 4 gusting 9 8.9
2019-Nov-20 08:09 010 4 gusting 11 8.9
2019-Nov-20 08:04 008 4 gusting 12 8.9
2019-Nov-20 07:59 024 4 gusting 12 8.9
2019-Nov-20 07:55 026 3 gusting 10 8.9
2019-Nov-20 07:49 029 3 gusting 7 8.3
2019-Nov-20 07:44 8.3
2019-Nov-20 07:39 051 3 gusting 6 8.3
2019-Nov-20 07:34 013 3 gusting 6 8.3
2019-Nov-20 07:29 004 1 gusting 5 7.8
2019-Nov-20 07:24 032 0 gusting 6 7.2
2019-Nov-20 07:19 347 0 gusting 6 6.7
2019-Nov-20 07:14 009 6.7
2019-Nov-20 07:09 345 6.1
2019-Nov-20 07:04 314 6.1
2019-Nov-20 06:59 077 6.1
2019-Nov-20 06:54 077 6.1
2019-Nov-20 06:49 077 0 gusting 6 6.1
2019-Nov-20 06:44 072 1 gusting 6 6.1
2019-Nov-20 06:39 105 1 gusting 3 6.1
2019-Nov-20 06:34 071 2 gusting 4 6.1
2019-Nov-20 06:29 065 2 gusting 5 6.1
2019-Nov-20 06:24 075 2 gusting 5 6.1
2019-Nov-20 06:19 070 2 gusting 6 6.1
2019-Nov-20 06:14 082 2 gusting 6 5.6
2019-Nov-20 06:09 060 1 gusting 5 5.6
2019-Nov-20 06:04 093 1 gusting 3 5.6
2019-Nov-20 05:59 093 1 gusting 3 5.6
2019-Nov-20 05:54 070 0 gusting 2 5.0
2019-Nov-20 05:49 090 0 gusting 2 4.4
2019-Nov-20 05:44 097 0 gusting 1 4.4
2019-Nov-20 05:39 096 3.9
2019-Nov-20 05:34 197 3.9
2019-Nov-20 05:29 198 3.9
2019-Nov-20 05:24 232 3.9
2019-Nov-20 05:19 058 4.4
2019-Nov-20 05:14 058 0 gusting 1 4.4
2019-Nov-20 05:09 058 0 gusting 1 4.4
2019-Nov-20 05:04 067 4.4
2019-Nov-20 04:59 129 0 gusting 1 5.0
2019-Nov-20 04:54 101 0 gusting 1 5.0
2019-Nov-20 04:49 102 0 gusting 1 5.0
2019-Nov-20 04:44 105 5.0
2019-Nov-20 04:39 328 0 gusting 2 5.0
2019-Nov-20 04:34 199 0 gusting 2 5.0
2019-Nov-20 04:29 139 5.0
2019-Nov-20 04:24 128 0 gusting 2 5.0
2019-Nov-20 04:19 132 0 gusting 4 5.0
2019-Nov-20 04:14 068 0 gusting 4 5.0
2019-Nov-20 04:09 175 5.0
2019-Nov-20 04:04 114 5.0
2019-Nov-20 03:59 114 5.0
2019-Nov-20 03:54 113 5.0
2019-Nov-20 03:49 114 5.6
2019-Nov-20 03:44 114 5.6
2019-Nov-20 03:39 113 5.6
2019-Nov-20 03:34 105 5.6
2019-Nov-20 03:29 105 5.6
2019-Nov-20 03:24 105 5.6
2019-Nov-20 03:19 105 5.6
2019-Nov-20 03:14 105 6.1
2019-Nov-20 03:09 105 6.1
2019-Nov-20 03:04 105 6.1
2019-Nov-20 02:59 105 6.7
2019-Nov-20 02:54 105 6.7
2019-Nov-20 02:49 108 6.7
2019-Nov-20 02:44 108 7.2
2019-Nov-20 02:39 108 7.2
2019-Nov-20 02:34 108 0 gusting 0 7.2
2019-Nov-20 02:29 110 7.2
2019-Nov-20 02:24 120 7.8
2019-Nov-20 02:19 120 7.8
2019-Nov-20 02:14 120 0 gusting 1 7.8
2019-Nov-20 02:09 107 0 gusting 1 7.8
2019-Nov-20 02:04 101 0 gusting 1 8.3
2019-Nov-20 01:59 105 0 gusting 1 8.3
2019-Nov-20 01:54 101 0 gusting 1 8.3
2019-Nov-20 01:49 070 0 gusting 2 8.3
2019-Nov-20 01:44 091 0 gusting 2 8.3
2019-Nov-20 01:39 033 0 gusting 1 8.3
2019-Nov-20 01:34 094 8.3
2019-Nov-20 01:29 120 8.3
2019-Nov-20 01:24 120 8.3
2019-Nov-20 01:19 107 8.3
2019-Nov-20 01:14 104 8.9
2019-Nov-20 01:09 144 8.9
2019-Nov-20 01:04 049 8.9
2019-Nov-20 00:59 027 8.9
2019-Nov-20 00:54 027 0 gusting 1 8.9
2019-Nov-20 00:49 027 8.9
2019-Nov-20 00:44 030 9.4
2019-Nov-20 00:39 077 9.4
2019-Nov-20 00:34 294 9.4
2019-Nov-20 00:29 292 0 gusting 3 9.4
2019-Nov-20 00:24 301 0 gusting 3 10.0
2019-Nov-20 00:19 311 0 gusting 4 10.0
2019-Nov-20 00:14 294 0 gusting 4 10.0
2019-Nov-20 00:09 309 1 gusting 6 10.6
2019-Nov-20 00:04 310 2 gusting 6 10.6
2019-Nov-19 23:59 286 2 gusting 5 10.6
2019-Nov-19 23:54 297 1 gusting 5 11.1
2019-Nov-19 23:49 289 1 gusting 3 11.1
2019-Nov-19 23:44 276 1 gusting 4 11.1
2019-Nov-19 23:39 287 0 gusting 4 11.1
2019-Nov-19 23:34 300 0 gusting 2 11.7
2019-Nov-19 23:29 300 1 gusting 4 11.1
2019-Nov-19 23:24 278 2 gusting 4 11.1
2019-Nov-19 23:19 283 2 gusting 4 11.1
2019-Nov-19 23:14 291 1 gusting 4 11.7
2019-Nov-19 23:09 275 1 gusting 4 11.7
2019-Nov-19 23:04 282 1 gusting 3 11.7
2019-Nov-19 22:59 307 1 gusting 5 11.7
2019-Nov-19 22:54 316 2 gusting 5 11.7
2019-Nov-19 22:49 337 2 gusting 5 11.7
2019-Nov-19 22:44 312 2 gusting 4 11.7
2019-Nov-19 22:39 312 2 gusting 5 11.7
2019-Nov-19 22:34 294 2 gusting 5 11.7
2019-Nov-19 22:29 285 1 gusting 5 11.7
2019-Nov-19 22:24 336 1 gusting 5 11.7
2019-Nov-19 22:19 298 2 gusting 6 11.7
2019-Nov-19 22:14 341 2 gusting 6 11.7
2019-Nov-19 22:09 331 2 gusting 6 11.7
2019-Nov-19 22:04 291 2 gusting 6 11.7
2019-Nov-19 21:59 308 1 gusting 4 11.7
2019-Nov-19 21:54 286 1 gusting 6 11.7
2019-Nov-19 21:49 347 2 gusting 6 11.7
2019-Nov-19 21:44 328 1 gusting 5 11.1
2019-Nov-19 21:39 326 1 gusting 5 11.1
2019-Nov-19 21:34 321 1 gusting 5 11.1
2019-Nov-19 21:29 259 2 gusting 6 11.1
2019-Nov-19 21:24 304 2 gusting 6 11.1
2019-Nov-19 21:19 302 2 gusting 6 10.6
2019-Nov-19 21:14 298 2 gusting 6 11.1
2019-Nov-19 21:09 347 1 gusting 4 11.1
2019-Nov-19 21:04 302 1 gusting 4 11.1
2019-Nov-19 20:59 297 1 gusting 4 11.1
2019-Nov-19 20:54 328 1 gusting 4 10.6
2019-Nov-19 20:49 316 1 gusting 4 10.6
2019-Nov-19 20:44 347 2 gusting 4 10.6
2019-Nov-19 20:39 301 2 gusting 4 10.6
2019-Nov-19 20:34 328 1 gusting 4 10.6
2019-Nov-19 20:29 292 1 gusting 3 10.6
2019-Nov-19 20:24 342 1 gusting 4 10.6
2019-Nov-19 20:19 300 1 gusting 4 10.0
2019-Nov-19 20:14 319 1 gusting 3 10.0
2019-Nov-19 20:09 319 2 gusting 5 10.0
2019-Nov-19 20:04 273 1 gusting 5 10.0
2019-Nov-19 19:59 349 2 gusting 5 10.0
2019-Nov-19 19:54 328 1 gusting 5 10.0
2019-Nov-19 19:49 288 1 gusting 4 10.0
2019-Nov-19 19:44 271 1 gusting 4 10.0
2019-Nov-19 19:39 317 1 gusting 4 10.0
2019-Nov-19 19:34 293 1 gusting 3 10.0
2019-Nov-19 19:29 323 2 gusting 3 10.0
2019-Nov-19 19:24 330 1 gusting 3 10.0
2019-Nov-19 19:19 331 1 gusting 3 10.0
2019-Nov-19 19:14 321 1 gusting 3 10.0
2019-Nov-19 19:09 358 1 gusting 3 10.0
2019-Nov-19 19:04 285 1 gusting 3 10.0
2019-Nov-19 18:59 353 1 gusting 3 9.4
2019-Nov-19 18:54 320 1 gusting 5 9.4
2019-Nov-19 18:49 342 1 gusting 5 9.4
2019-Nov-19 18:44 006 0 gusting 4 9.4
2019-Nov-19 18:39 343 0 gusting 3 9.4
2019-Nov-19 18:34 352 1 gusting 3 8.9
2019-Nov-19 18:29 321 1 gusting 4 8.9
2019-Nov-19 18:24 356 1 gusting 4 8.9
2019-Nov-19 18:19 298 0 gusting 3 8.9
2019-Nov-19 18:14 298 1 gusting 3 8.9
2019-Nov-19 18:09 359 1 gusting 2 8.9
2019-Nov-19 18:04 328 1 gusting 3 8.9